Regional Weather Roundup
Issued by NWS

Home | Current Version | Previous Version | Graphics & Text | Print | Product List | Glossary On
Versions: 1 2 3 4 5 6 7 8 9 10 11 12 13 14 15 16 17 18 19 20 21 22 23 24 25 26 27 28 29 30 31 32 33 34 35 36 37 38 39 40 41 42 43 44 45 46 47 48 49 50
000
ASUS45 KABQ 301201
RWRNM
NEW MEXICO REGIONAL WEATHER ROUNDUP
NATIONAL WEATHER SERVICE ALBUQUERQUE NM
600 AM MDT MON MAY 30 2016

NOTE: "FAIR" MEANS FEW OR NO CLOUDS BELOW 12,000 FEET AGL WITH NO
       SIGNIFICANT WEATHER OR OBSTRUCTIONS TO VISION.

      THIS PRODUCT IS RELEASED AS TWO VERSIONS.  ONE VERSION NEAR
      THE TOP OF THE HOUR CONTAINING PRELIMINARY DATA FROM ALBUQUERQUE
      AND OTHER STATIONS.  A FINAL VERSION WITH ADDITIONAL DATA IS
      ISSUED ABOUT 10 MINUTES AFTER THE HOUR.

NMZ501-503-504-510>518-301300-
NORTHWEST PLATEAU/NORTHCENTRAL MOUNTAINS

CITY           SKY/WX    TMP DP  RH WIND       PRES   REMARKS
FARMINGTON     FAIR      45  23  42 E6        30.09R
6HR MIN TEMP:  44; 6HR MAX TEMP:  58;

SANTA FE       FAIR      48  42  80 S3        30.17S
6HR MIN TEMP:  46; 6HR MAX TEMP:  64;

TAOS           FAIR      39  21  48 NE7       30.23R WCI  34

$$
NMZ402-403-502-505>509-301300-
WESTCENTRAL MOUNTAINS/SOUTHWEST MOUNTAINS

CITY           SKY/WX    TMP DP  RH WIND       PRES   REMARKS
GALLUP         FAIR      39  19  44 NE7       30.17S WCI  34
6HR MIN TEMP:  37; 6HR MAX TEMP:  48;

GRANTS         FAIR      31  13  45 CALM      30.20S
SILVER CITY      N/A     54  19  26 N8        30.14R

$$
NMZ407-409-411-412-301300-
SOUTHERN DESERTS

CITY           SKY/WX    TMP DP  RH WIND       PRES   REMARKS
LORDSBURG      FAIR      57  32  38 SE6       30.07R
DEMING         FAIR      59  37  44 W6        30.08R
6HR MIN TEMP:  59; 6HR MAX TEMP:  71;

HOLLOMAN AFB   FAIR      70  37  30 SE12      30.04R
ALAMOGORDO     FAIR      68  36  30 S8        30.06R
T OR C         FAIR      61  18  18 NW7       30.07R
6HR MIN TEMP:  61; 6HR MAX TEMP:  73;


$$
NMZ519>523-301300-
CENTRAL VALLEYS/CENTRAL HIGHLANDS

CITY           SKY/WX    TMP DP  RH WIND       PRES   REMARKS
ALBUQUERQUE    FAIR      56  43  61 N7        30.12R
6HR MIN TEMP:  56; 6HR MAX TEMP:  69;

DOUBLE EAGLE   PTCLDY    50  43  76 N8        30.15R
CLINES CORNERS FOG       46  45  96 CALM      30.19S VSB 1/4
6HR MIN TEMP:  46; 6HR MAX TEMP:  50;

BELEN          FAIR      50  14  24 N7        30.11R
6HR MIN TEMP:  49; 6HR MAX TEMP:  65;

SOCORRO        NOT AVBL

$$
NMZ524>526-539-540-301300-
SOUTHCENTRAL MOUNTAINS

CITY           SKY/WX    TMP DP  RH WIND       PRES   REMARKS
RUIDOSO        NOT AVBL

$$
NMZ527>531-301300-
NORTHEAST HIGHLANDS/NORTHEAST PLAINS

CITY           SKY/WX    TMP DP  RH WIND       PRES   REMARKS
LAS VEGAS      FAIR      44  42  93 S7        30.20R
6HR MIN TEMP:  44; 6HR MAX TEMP:  49;

RATON          CLOUDY    50  45  83 NE3       30.17S
6HR MIN TEMP:  45; 6HR MAX TEMP:  51;

CLAYTON        FAIR      50  47  89 SW8       30.11S
6HR MIN TEMP:  50; 6HR MAX TEMP:  54; 6HR PCP: TRACE;


$$
NMZ532>537-301300-
EASTCENTRAL PLAINS

CITY           SKY/WX    TMP DP  RH WIND       PRES   REMARKS
TUCUMCARI      CLOUDY    53  50  89 SW3       30.13S
6HR MIN TEMP:  48; 6HR MAX TEMP:  53;

CANNON AFB     NOT AVBL
CLOVIS AIRPORT CLOUDY    54  48  82 NW7       30.14R

$$
NMZ028-029-538-301300-
SOUTHEAST PLAINS

CITY           SKY/WX    TMP DP  RH WIND       PRES   REMARKS
ROSWELL        CLOUDY    62  52  69 S6        30.10R
6HR MIN TEMP:  61; 6HR MAX TEMP:  63;

ARTESIA        CLOUDY    61  57  88 E3        30.10S
CARLSBAD       CLOUDY    61  55  81 E3        30.08R
6HR MIN TEMP:  59; 6HR MAX TEMP:  63;

HOBBS          CLOUDY    57  57 100 NE6       30.12R


$$



USA.gov is the U.S. government's official web portal to all federal, state and local government web resources and services.